Time,TemperatureF,DewpointF,PressureIn,WindDirection,WindDirectionDegrees,WindSpeedMPH,WindSpeedGustMPH,Humidity,HourlyPrecipIn,Conditions,Clouds,dailyrainin,SoftwareType,DateUTC
2013-06-16 00:02:00,67.0,64.0,29.93,SSW,211,4.0,9.0,91,0.00,,,0.04,,2013-06-16 04:02:00,
2013-06-16 00:12:00,67.0,64.0,29.93,SSW,211,4.0,9.0,91,0.00,,,0.04,,2013-06-16 04:12:00,
2013-06-16 00:23:00,67.0,64.0,29.92,SSW,200,4.0,8.0,91,0.00,,,0.04,,2013-06-16 04:23:00,
2013-06-16 00:34:00,67.0,64.0,29.92,South,178,4.0,7.0,91,0.00,,,0.04,,2013-06-16 04:34:00,
2013-06-16 00:42:00,67.0,64.0,29.92,South,178,4.0,7.0,91,0.00,,,0.04,,2013-06-16 04:42:00,
2013-06-16 00:53:00,67.0,64.0,29.91,South,190,4.0,7.0,91,0.00,,,0.04,,2013-06-16 04:53:00,
2013-06-16 01:02:00,67.0,64.0,29.91,SSW,205,3.0,8.0,91,0.00,,,0.04,,2013-06-16 05:02:00,
2013-06-16 01:12:00,67.0,64.0,29.91,SW,214,4.0,6.0,91,0.00,,,0.04,,2013-06-16 05:12:00,
2013-06-16 01:22:00,67.0,64.0,29.91,SW,214,4.0,6.0,91,0.00,,,0.04,,2013-06-16 05:22:00,
2013-06-16 01:34:00,67.0,64.0,29.92,SW,215,4.0,7.0,91,0.00,,,0.04,,2013-06-16 05:34:00,
2013-06-16 01:43:00,67.0,65.0,29.91,WSW,238,4.0,7.0,92,0.00,,,0.04,,2013-06-16 05:43:00,
2013-06-16 01:52:00,67.0,65.0,29.91,SW,228,3.0,7.0,92,0.00,,,0.04,,2013-06-16 05:52:00,
2013-06-16 02:01:00,68.0,65.0,29.90,SW,236,4.0,6.0,91,0.00,,,0.04,,2013-06-16 06:01:00,
2013-06-16 02:11:00,68.0,65.0,29.89,SW,217,3.0,6.0,90,0.00,,,0.04,,2013-06-16 06:11:00,
2013-06-16 02:22:00,68.0,65.0,29.89,SSW,211,2.0,6.0,90,0.00,,,0.04,,2013-06-16 06:22:00,
2013-06-16 02:33:00,68.0,65.0,29.89,WSW,240,3.0,6.0,90,0.00,,,0.04,,2013-06-16 06:33:00,
2013-06-16 02:43:00,68.0,65.0,29.89,SSW,213,4.0,7.0,89,0.00,,,0.04,,2013-06-16 06:43:00,
2013-06-16 02:52:00,69.0,65.0,29.89,WSW,242,4.0,8.0,88,0.00,,,0.04,,2013-06-16 06:52:00,
2013-06-16 03:01:00,69.0,65.0,29.89,WSW,248,4.0,7.0,88,0.00,,,0.04,,2013-06-16 07:01:00,
2013-06-16 03:12:00,69.0,65.0,29.89,WSW,248,4.0,7.0,88,0.00,,,0.04,,2013-06-16 07:12:00,
2013-06-16 03:22:00,69.0,66.0,29.88,SW,234,4.0,9.0,89,0.00,,,0.04,,2013-06-16 07:22:00,
2013-06-16 03:33:00,70.0,66.0,29.88,WNW,300,3.0,6.0,88,0.00,,,0.04,,2013-06-16 07:33:00,
2013-06-16 03:43:00,70.0,66.0,29.88,WNW,300,3.0,6.0,88,0.00,,,0.04,,2013-06-16 07:43:00,
2013-06-16 03:53:00,70.0,66.0,29.88,WSW,248,2.0,7.0,88,0.00,,,0.04,,2013-06-16 07:53:00,
2013-06-16 04:02:00,70.0,66.0,29.88,WNW,303,2.0,5.0,88,0.00,,,0.04,,2013-06-16 08:02:00,
2013-06-16 04:12:00,70.0,66.0,29.88,WSW,256,1.0,7.0,88,0.00,,,0.04,,2013-06-16 08:12:00,
2013-06-16 04:22:00,70.0,66.0,29.88,WSW,256,1.0,7.0,88,0.00,,,0.04,,2013-06-16 08:22:00,
2013-06-16 04:33:00,70.0,66.0,29.88,SSE,165,0.0,2.0,88,0.00,,,0.04,,2013-06-16 08:33:00,
2013-06-16 04:43:00,69.0,66.0,29.88,WSW,249,0.0,2.0,89,0.00,,,0.04,,2013-06-16 08:43:00,
2013-06-16 04:54:00,69.0,66.0,29.88,WSW,252,0.0,1.0,89,0.00,,,0.04,,2013-06-16 08:54:00,
2013-06-16 05:02:00,69.0,66.0,29.89,WSW,237,1.0,2.0,90,0.00,,,0.04,,2013-06-16 09:02:00,
2013-06-16 05:11:00,69.0,66.0,29.89,SSW,208,0.0,4.0,89,0.00,,,0.04,,2013-06-16 09:11:00,
2013-06-16 05:22:00,68.0,65.0,29.89,SSE,162,0.0,2.0,91,0.01,,,0.05,,2013-06-16 09:22:00,
2013-06-16 05:33:00,68.0,65.0,29.89,SSE,162,0.0,2.0,91,0.01,,,0.05,,2013-06-16 09:33:00,
2013-06-16 05:43:00,68.0,66.0,29.90,WSW,247,1.0,3.0,92,0.01,,,0.05,,2013-06-16 09:43:00,
2013-06-16 05:52:00,68.0,66.0,29.91,SSW,207,2.0,4.0,92,0.01,,,0.05,,2013-06-16 09:52:00,
2013-06-16 06:02:00,68.0,66.0,29.91,SSW,207,2.0,4.0,92,0.01,,,0.05,,2013-06-16 10:02:00,
2013-06-16 06:12:00,68.0,65.0,29.89,SW,228,2.0,4.0,91,0.01,,,0.05,,2013-06-16 10:12:00,
2013-06-16 06:22:00,68.0,65.0,29.89,SW,228,2.0,4.0,91,0.01,,,0.05,,2013-06-16 10:22:00,
2013-06-16 06:33:00,68.0,65.0,29.89,SW,228,2.0,4.0,91,0.01,,,0.05,,2013-06-16 10:33:00,
2013-06-16 06:43:00,68.0,65.0,29.89,SSW,196,4.0,6.0,90,0.00,,,0.05,,2013-06-16 10:43:00,
2013-06-16 06:53:00,68.0,65.0,29.89,SSW,196,4.0,6.0,90,0.00,,,0.05,,2013-06-16 10:53:00,
2013-06-16 07:02:00,67.0,64.0,29.88,WSW,240,3.0,5.0,91,0.00,,,0.05,,2013-06-16 11:02:00,
2013-06-16 07:12:00,67.0,64.0,29.89,SW,217,3.0,7.0,90,0.00,,,0.05,,2013-06-16 11:12:00,
2013-06-16 07:22:00,67.0,64.0,29.89,SW,217,3.0,7.0,90,0.00,,,0.05,,2013-06-16 11:22:00,
2013-06-16 07:34:00,67.0,64.0,29.89,West,266,4.0,9.0,90,0.00,,,0.05,,2013-06-16 11:34:00,
2013-06-16 07:43:00,67.0,64.0,29.89,WSW,252,3.0,7.0,91,0.00,,,0.05,,2013-06-16 11:43:00,
2013-06-16 07:52:00,67.0,64.0,29.89,SW,224,3.0,6.0,91,0.00,,,0.05,,2013-06-16 11:52:00,
2013-06-16 08:02:00,67.0,64.0,29.90,SW,227,4.0,7.0,90,0.00,,,0.05,,2013-06-16 12:02:00,
2013-06-16 08:12:00,67.0,64.0,29.90,SW,227,4.0,7.0,90,0.00,,,0.05,,2013-06-16 12:12:00,
2013-06-16 08:22:00,67.0,64.0,29.90,SW,222,3.0,11.0,90,0.00,,,0.05,,2013-06-16 12:22:00,
2013-06-16 08:33:00,68.0,65.0,29.90,WSW,244,3.0,6.0,90,0.00,,,0.05,,2013-06-16 12:33:00,
2013-06-16 08:42:00,68.0,65.0,29.90,WSW,244,3.0,6.0,90,0.00,,,0.05,,2013-06-16 12:42:00,
2013-06-16 08:53:00,68.0,64.0,29.91,SW,224,3.0,8.0,88,0.00,,,0.05,,2013-06-16 12:53:00,
2013-06-16 09:01:00,68.0,64.0,29.91,SW,224,3.0,8.0,88,0.00,,,0.05,,2013-06-16 13:01:00,
2013-06-16 09:11:00,69.0,65.0,29.91,West,269,3.0,7.0,88,0.00,,,0.05,,2013-06-16 13:11:00,
2013-06-16 09:22:00,69.0,65.0,29.91,SW,225,5.0,10.0,87,0.00,,,0.05,,2013-06-16 13:22:00,
2013-06-16 09:34:00,69.0,65.0,29.91,West,280,5.0,11.0,88,0.00,,,0.05,,2013-06-16 13:34:00,
2013-06-16 09:43:00,71.0,66.0,29.91,South,185,5.0,8.0,84,0.00,,,0.05,,2013-06-16 13:43:00,
2013-06-16 09:53:00,71.0,66.0,29.91,South,185,5.0,8.0,84,0.00,,,0.05,,2013-06-16 13:53:00,
2013-06-16 10:02:00,71.0,66.0,29.91,West,270,4.0,11.0,85,0.00,,,0.05,,2013-06-16 14:02:00,
2013-06-16 10:12:00,71.0,66.0,29.91,West,270,4.0,11.0,85,0.00,,,0.05,,2013-06-16 14:12:00,
2013-06-16 10:22:00,72.0,66.0,29.91,WNW,289,3.0,10.0,82,0.00,,,0.05,,2013-06-16 14:22:00,
2013-06-16 10:34:00,73.0,68.0,29.92,SSW,205,2.0,8.0,83,0.00,,,0.05,,2013-06-16 14:34:00,
2013-06-16 10:43:00,74.0,68.0,29.91,SSW,213,2.0,7.0,82,0.00,,,0.05,,2013-06-16 14:43:00,
2013-06-16 10:53:00,74.0,68.0,29.91,SSW,213,2.0,7.0,82,0.00,,,0.05,,2013-06-16 14:53:00,
2013-06-16 11:02:00,74.0,67.0,29.91,South,181,3.0,8.0,80,0.00,,,0.05,,2013-06-16 15:02:00,
2013-06-16 11:12:00,74.0,67.0,29.91,South,181,3.0,8.0,80,0.00,,,0.05,,2013-06-16 15:12:00,
2013-06-16 11:23:00,73.0,67.0,29.91,SW,227,1.0,6.0,81,0.00,,,0.05,,2013-06-16 15:23:00,
2013-06-16 11:33:00,73.0,67.0,29.91,SW,227,1.0,6.0,81,0.00,,,0.05,,2013-06-16 15:33:00,
2013-06-16 11:43:00,74.0,67.0,29.91,SW,218,1.0,5.0,79,0.00,,,0.05,,2013-06-16 15:43:00,
2013-06-16 11:53:00,74.0,68.0,29.91,WSW,246,2.0,6.0,82,0.00,,,0.05,,2013-06-16 15:53:00,
2013-06-16 12:02:00,75.0,68.0,29.91,South,173,2.0,5.0,79,0.00,,,0.05,,2013-06-16 16:02:00,
2013-06-16 12:12:00,75.0,68.0,29.92,South,188,2.0,4.0,79,0.00,,,0.05,,2013-06-16 16:12:00,
2013-06-16 12:23:00,75.0,68.0,29.92,WSW,244,2.0,6.0,79,0.00,,,0.05,,2013-06-16 16:23:00,
2013-06-16 12:33:00,76.0,69.0,29.92,WSW,246,4.0,6.0,78,0.00,,,0.05,,2013-06-16 16:33:00,
2013-06-16 12:43:00,76.0,68.0,29.92,SW,217,4.0,9.0,77,0.00,,,0.05,,2013-06-16 16:43:00,
2013-06-16 12:53:00,77.0,69.0,29.92,West,262,4.0,9.0,77,0.00,,,0.05,,2013-06-16 16:53:00,
2013-06-16 13:02:00,77.0,68.0,29.92,SW,225,4.0,9.0,75,0.00,,,0.05,,2013-06-16 17:02:00,
2013-06-16 13:12:00,77.0,68.0,29.92,SW,225,4.0,9.0,75,0.00,,,0.05,,2013-06-16 17:12:00,
2013-06-16 13:22:00,76.0,68.0,29.91,SSW,211,4.0,9.0,76,0.00,,,0.05,,2013-06-16 17:22:00,
2013-06-16 13:34:00,76.0,68.0,29.91,SSW,211,4.0,9.0,76,0.00,,,0.05,,2013-06-16 17:34:00,
2013-06-16 13:43:00,76.0,67.0,29.92,SW,225,3.0,9.0,75,0.00,,,0.05,,2013-06-16 17:43:00,
2013-06-16 13:53:00,77.0,69.0,29.91,WSW,242,5.0,11.0,76,0.00,,,0.05,,2013-06-16 17:53:00,
2013-06-16 14:02:00,77.0,69.0,29.91,WSW,242,5.0,11.0,76,0.00,,,0.05,,2013-06-16 18:02:00,
2013-06-16 14:12:00,77.0,68.0,29.92,WSW,245,5.0,8.0,73,0.00,,,0.05,,2013-06-16 18:12:00,
2013-06-16 14:22:00,77.0,68.0,29.92,WSW,245,5.0,8.0,73,0.00,,,0.05,,2013-06-16 18:22:00,
2013-06-16 14:33:00,78.0,71.0,29.91,WSW,255,4.0,9.0,78,0.00,,,0.04,,2013-06-16 18:33:00,
2013-06-16 14:43:00,78.0,68.0,29.91,West,276,6.0,10.0,71,0.00,,,0.04,,2013-06-16 18:43:00,
2013-06-16 14:52:00,78.0,70.0,29.91,SW,236,4.0,11.0,76,0.00,,,0.04,,2013-06-16 18:52:00,
2013-06-16 15:01:00,79.0,70.0,29.91,WSW,251,4.0,8.0,75,0.00,,,0.04,,2013-06-16 19:01:00,
2013-06-16 15:11:00,79.0,70.0,29.91,WSW,251,4.0,8.0,75,0.00,,,0.04,,2013-06-16 19:11:00,
2013-06-16 15:22:00,78.0,70.0,29.91,WSW,242,5.0,11.0,76,0.00,,,0.04,,2013-06-16 19:22:00,
2013-06-16 15:34:00,78.0,70.0,29.91,South,190,5.0,10.0,77,0.00,,,0.01,,2013-06-16 19:34:00,
2013-06-16 15:43:00,78.0,70.0,29.91,South,190,5.0,10.0,77,0.00,,,0.01,,2013-06-16 19:43:00,
2013-06-16 15:53:00,78.0,70.0,29.91,South,190,5.0,10.0,77,0.00,,,0.01,,2013-06-16 19:53:00,
2013-06-16 16:02:00,79.0,70.0,29.91,SW,236,6.0,11.0,73,0.00,,,0.01,,2013-06-16 20:02:00,
2013-06-16 16:11:00,79.0,70.0,29.91,SW,236,6.0,11.0,73,0.00,,,0.01,,2013-06-16 20:11:00,
2013-06-16 16:22:00,79.0,68.0,29.91,South,188,6.0,14.0,70,0.00,,,0.01,,2013-06-16 20:22:00,
2013-06-16 16:33:00,80.0,70.0,29.91,WSW,257,5.0,9.0,72,0.00,,,0.01,,2013-06-16 20:33:00,
2013-06-16 16:42:00,80.0,70.0,29.91,WSW,257,5.0,9.0,72,0.00,,,0.01,,2013-06-16 20:42:00,
2013-06-16 16:53:00,80.0,68.0,29.91,SW,216,5.0,9.0,67,0.00,,,0.01,,2013-06-16 20:53:00,
2013-06-16 17:02:00,80.0,68.0,29.91,SW,216,5.0,9.0,67,0.00,,,0.01,,2013-06-16 21:02:00,
2013-06-16 17:11:00,80.0,68.0,29.91,WNW,285,4.0,10.0,68,0.00,,,0.01,,2013-06-16 21:11:00,
2013-06-16 17:22:00,79.0,68.0,29.91,SW,232,4.0,9.0,68,0.00,,,0.01,,2013-06-16 21:22:00,
2013-06-16 17:33:00,79.0,68.0,29.91,SW,232,4.0,9.0,68,0.00,,,0.01,,2013-06-16 21:33:00,
2013-06-16 17:42:00,80.0,68.0,29.91,WSW,242,3.0,7.0,68,0.00,,,0.01,,2013-06-16 21:42:00,
2013-06-16 17:53:00,80.0,68.0,29.91,WSW,242,3.0,7.0,68,0.00,,,0.01,,2013-06-16 21:53:00,
2013-06-16 18:01:00,81.0,69.0,29.91,West,260,3.0,9.0,68,0.00,,,0.01,,2013-06-16 22:01:00,
2013-06-16 18:12:00,80.0,68.0,29.90,West,281,3.0,6.0,67,0.00,,,0.01,,2013-06-16 22:12:00,
2013-06-16 18:22:00,80.0,68.0,29.90,West,281,3.0,6.0,67,0.00,,,0.01,,2013-06-16 22:22:00,
2013-06-16 18:32:00,80.0,69.0,29.90,SW,214,1.0,5.0,69,0.00,,,0.01,,2013-06-16 22:32:00,
2013-06-16 18:42:00,80.0,69.0,29.90,SW,214,1.0,5.0,69,0.00,,,0.01,,2013-06-16 22:42:00,
2013-06-16 18:52:00,81.0,69.0,29.90,West,277,2.0,6.0,67,0.00,,,0.01,,2013-06-16 22:52:00,
2013-06-16 19:01:00,81.0,69.0,29.90,West,277,2.0,6.0,67,0.00,,,0.01,,2013-06-16 23:01:00,
2013-06-16 19:11:00,80.0,68.0,29.90,WNW,292,1.0,7.0,66,0.00,,,0.01,,2013-06-16 23:11:00,
2013-06-16 19:22:00,80.0,67.0,29.89,SW,225,1.0,6.0,65,0.00,,,0.01,,2013-06-16 23:22:00,
2013-06-16 19:32:00,80.0,68.0,29.90,SW,233,1.0,5.0,68,0.00,,,0.01,,2013-06-16 23:32:00,
2013-06-16 19:42:00,80.0,68.0,29.90,SW,233,1.0,5.0,68,0.00,,,0.01,,2013-06-16 23:42:00,
2013-06-16 19:52:00,78.0,67.0,29.90,SSE,148,1.0,10.0,69,0.00,,,0.01,,2013-06-16 23:52:00,
2013-06-16 20:02:00,78.0,68.0,29.90,West,269,1.0,2.0,71,0.00,,,0.01,,2013-06-17 00:02:00,
2013-06-16 20:11:00,78.0,68.0,29.90,West,269,1.0,2.0,71,0.00,,,0.01,,2013-06-17 00:11:00,
2013-06-16 20:22:00,77.0,66.0,29.91,West,263,2.0,4.0,70,0.00,,,0.01,,2013-06-17 00:22:00,
2013-06-16 20:32:00,77.0,66.0,29.91,West,280,1.0,5.0,70,0.00,,,0.01,,2013-06-17 00:32:00,
2013-06-16 20:43:00,77.0,68.0,29.91,WNW,285,0.0,2.0,73,0.00,,,0.01,,2013-06-17 00:43:00,
2013-06-16 20:52:00,76.0,67.0,29.91,WNW,285,0.0,1.0,75,0.00,,,0.01,,2013-06-17 00:52:00,
2013-06-16 21:02:00,76.0,68.0,29.91,WNW,285,0.0,1.0,76,0.00,,,0.01,,2013-06-17 01:02:00,
2013-06-16 21:12:00,75.0,67.0,29.91,WNW,285,1.0,1.0,77,0.00,,,0.01,,2013-06-17 01:12:00,
2013-06-16 21:22:00,74.0,66.0,29.90,WNW,285,0.0,1.0,77,0.00,,,0.01,,2013-06-17 01:22:00,
2013-06-16 21:32:00,74.0,67.0,29.90,WNW,285,0.0,1.0,78,0.00,,,0.01,,2013-06-17 01:32:00,
2013-06-16 21:43:00,73.0,66.0,29.90,WNW,285,0.0,1.0,79,0.00,,,0.01,,2013-06-17 01:43:00,
2013-06-16 21:53:00,73.0,67.0,29.90,WNW,285,0.0,0.0,81,0.00,,,0.01,,2013-06-17 01:53:00,
2013-06-16 22:02:00,72.0,67.0,29.90,WNW,285,0.0,1.0,83,0.00,,,0.01,,2013-06-17 02:02:00,
2013-06-16 22:12:00,71.0,67.0,29.91,WNW,285,0.0,1.0,86,0.00,,,0.01,,2013-06-17 02:12:00,
2013-06-16 22:22:00,71.0,67.0,29.91,WNW,285,0.0,1.0,86,0.00,,,0.01,,2013-06-17 02:22:00,
2013-06-16 22:34:00,71.0,67.0,29.91,WNW,285,0.0,1.0,87,0.00,,,0.01,,2013-06-17 02:34:00,
2013-06-16 22:43:00,70.0,66.0,29.91,WNW,285,0.0,1.0,88,0.00,,,0.01,,2013-06-17 02:43:00,
2013-06-16 22:53:00,70.0,67.0,29.92,WNW,285,0.0,0.0,90,0.00,,,0.01,,2013-06-17 02:53:00,
2013-06-16 23:02:00,70.0,67.0,29.92,WNW,285,0.0,0.0,90,0.00,,,0.01,,2013-06-17 03:02:00,
2013-06-16 23:12:00,69.0,66.0,29.92,WNW,285,0.0,1.0,91,0.00,,,0.01,,2013-06-17 03:12:00,
2013-06-16 23:22:00,69.0,66.0,29.92,WNW,285,0.0,1.0,91,0.00,,,0.01,,2013-06-17 03:22:00,
2013-06-16 23:33:00,69.0,67.0,29.92,WNW,285,0.0,0.0,92,0.00,,,0.01,,2013-06-17 03:33:00,
2013-06-16 23:44:00,69.0,67.0,29.92,WNW,285,0.0,0.0,93,0.00,,,0.01,,2013-06-17 03:44:00,
2013-06-16 23:53:00,69.0,67.0,29.92,WNW,285,0.0,1.0,93,0.00,,,0.01,,2013-06-17 03:53:00,